Location: Unspecified
(48.2082°N, 0.0000°E)
Time: 20:13:49
(UTC+00:00)

A-11 Canister half - Pass Details

Date: 27 June 2019
Orbit: 1514 x 1685 km, 47.2° (Epoch: 22 July)

Event Time Altitude Azimuth Distance (km) Brightness Sun altitude
Rises 07:30:03 0° 193° (SSW) 4,923 11.5 31.5°
Reaches altitude 10° 07:33:59 10° 181° (S) 3,929 11.2 32.1°
Maximum altitude 07:41:33 25° 131° (SE) 2,897 11.5 33.4°
Drops below altitude 10° 07:48:58 10° 82° (E) 3,865 12.5 34.6°
Sets 07:52:46 0° 70° (ENE) 4,827 12.5 35.3°
